Home   Weather   Sevilla   Past weeks

Flag for Spain Past Weather in Sevilla, Spain — Yesterday and Last 2 Weeks

Now
59 °F

Passing clouds.


Feels Like: 60 °F
Forecast: 50 / 66 °F
Wind: 3 mph from Northeast

Location: Sevilla / San Pablo

Current Time: Dec 10, 2016 at 12:13:41 pm

Latest Report: Dec 10, 2016 at 11:30 am


Visibility: N/A

Pressure: 30.39 "Hg

Humidity: 82%

Dew Point: 54 °F

Location of SevillaLocation

Past Weather in Sevilla — Graph

°F

Sevilla Temperature Yesterday

Maximum temperature yesterday: 70 °F (at 4:00 pm)
Minimum temperature yesterday: 52 °F (at 6:30 am)
Average temperature yesterday: 59 °F

High & Low Weather Summary for the Past Weeks

 TemperatureHumidityPressure
High70 °F (Dec 9, 4:00 pm)100% (Nov 25, 11:30 pm)30.42 "Hg (Nov 25, 11:30 pm)
Low46 °F (Nov 28, 5:30 am)53% (Dec 9, 4:30 pm)29.62 "Hg (Nov 26, 1:00 am)
Average57 °F87%30.03 "Hg
* Reported Nov 25 11:00 am — Dec 10 11:00 am, Sevilla, Weather by CustomWeather, © 2016

Note: Actual official high and low records may vary slightly from our data, if they occured in-between our weather recording intervals... More about our weather records

Advertising

Sevilla Weather History for the Previous 24 Hours

Scroll right to see more
 ConditionsComfort  
Time TempWeatherWind HumidityBarometerVisibility
11:00 am
Sat, Dec 10
55 °FSunny.7 mph88%30.39 "Hg10 mi
10:30 am55 °FSunny.7 mph88%30.39 "Hg10 mi
10:00 am52 °FSunny.5 mph94%30.36 "Hg10 mi
9:30 am50 °FSunny.6 mph100%30.36 "Hg10 mi
9:00 am50 °FSunny.5 mph94%30.36 "Hg10 mi
8:30 am48 °FSunny.2 mph100%30.33 "Hg10 mi
8:00 am50 °FClear.5 mph94%30.33 "Hg10 mi
7:30 am48 °FClear.3 mph100%30.33 "Hg10 mi
7:00 am48 °FClear.1 mph100%30.33 "Hg10 mi
6:30 am50 °FPassing clouds.3 mph94%30.33 "HgN/A
6:00 am50 °FClear.2 mph94%30.33 "Hg10 mi
5:30 am48 °FClear.No wind100%30.33 "Hg10 mi
5:00 am50 °FClear.No wind94%30.33 "Hg10 mi
4:30 am50 °FClear.1 mph100%30.33 "Hg10 mi
4:00 am48 °FClear.No wind100%30.33 "Hg10 mi
3:30 am50 °FClear.No wind94%30.33 "Hg10 mi
3:00 am50 °FCool.No wind100%30.36 "HgN/A
2:30 am50 °FCool.No wind94%30.36 "Hg6 mi
2:00 am52 °FCool.No wind94%30.36 "HgN/A
1:30 am52 °FCool.No wind94%30.36 "HgN/A
1:00 am52 °FClear.2 mph94%30.36 "Hg10 mi
12:30 am52 °FClear.2 mph100%30.36 "Hg10 mi
12:00 am54 °FClear.3 mph94%30.36 "Hg10 mi
11:30 pm
Fri, Dec 9
54 °FClear.3 mph94%30.36 "Hg10 mi
11:00 pm54 °FClear.1 mph94%30.36 "Hg10 mi
10:30 pm55 °FClear.2 mph88%30.36 "Hg10 mi
10:00 pm57 °FPassing clouds.6 mph82%30.36 "HgN/A
9:30 pm57 °FClear.8 mph82%30.36 "Hg10 mi
9:00 pm59 °FClear.7 mph77%30.36 "Hg10 mi
8:30 pm59 °FPassing clouds.8 mph82%30.36 "HgN/A
8:00 pm61 °FClear.9 mph77%30.36 "Hg10 mi
7:30 pm61 °FClear.10 mph77%30.36 "Hg10 mi
7:00 pm63 °FClear.8 mph73%30.36 "Hg10 mi
6:30 pm63 °FClear.5 mph73%30.36 "Hg10 mi
6:00 pm66 °FSunny.9 mph68%30.33 "Hg10 mi
5:30 pm68 °FPassing clouds.3 mph60%30.33 "HgN/A
5:00 pm70 °FPassing clouds.7 mph53%30.33 "HgN/A
4:30 pm70 °FPassing clouds.7 mph53%30.33 "HgN/A
4:00 pm70 °FPassing clouds.9 mph57%30.33 "HgN/A
3:30 pm68 °FPassing clouds.10 mph64%30.33 "HgN/A
3:00 pm68 °FPassing clouds.10 mph64%30.33 "HgN/A
2:30 pm66 °FPassing clouds.10 mph64%30.36 "HgN/A
2:00 pm66 °FPassing clouds.13 mph64%30.36 "HgN/A
1:30 pm64 °FSunny.13 mph64%30.39 "Hg10 mi
1:00 pm64 °FSunny.15 mph68%30.39 "Hg10 mi
12:30 pm63 °FSunny.13 mph68%30.39 "Hg10 mi
12:00 pm61 °FSunny.14 mph72%30.42 "Hg10 mi
Weather by CustomWeather, © 2016

See weather overviewHow to use our weather pages